Jersey, United Kingdom

11:41 AM GMT on December 05, 2016 (GMT +0000)
Jersey

Weather History for EGJJ - December, 2012

Change the Weather History Date:

Friday, December 7, 2012

  Actual Average Record
Temperature  
Mean Temperature 45 °F -  
Max Temperature 48 °F 48 °F 55 °F (2000)
Min Temperature 42 °F 42 °F 35 °F (2003)
Degree Days  
Heating Degree Days 20    
Moisture  
Dew Point 37 °F    
Average Humidity 69    
Maximum Humidity 94    
Minimum Humidity 54    
Precipitation  
Precipitation 0.00 in - - ()
Sea Level Pressure  
Sea Level Pressure 29.74 in    
Wind  
Wind Speed 25 mph ()    
Max Wind Speed 38 mph    
Max Gust Speed 50 mph    
Visibility 7.6 miles    
Events Rain    
Averages and records for this station are not official NWS values.
T = Trace of Precipitation, MM = Missing Value Source: Averaged Metar Reports

Daily Weather History Graph

Daily Weather History Graph

Search for Another Location

Airport or City:

Trip Planner

Search our weather history database for the weather conditions in past years. The results will help you decide how hot, cold, wet, or windy it might be!

Date:

Astronomy

Dec. 07, 2012 Rise Set
Actual Time 7:49 AM GMT 4:10 PM GMT
Civil Twilight 7:12 AM GMT 4:47 PM GMT
Nautical Twilight 6:32 AM GMT 5:28 PM GMT
Astronomical Twilight 5:53 AM GMT 6:06 PM GMT
Moon 12:21 AM GMT (12/7) 12:28 PM GMT (12/7)
Length of Visible Light 9h 35m
Length of Day
8h 20m
Last Quarter, 41% of the Moon is Illuminated
Dec 7
Last Quarter
Dec 13
New
Dec 20
First Quarter
Dec 28
Full
Jan 5
Last Quarter

Hourly Weather History & Observations

Time (GMT) Temp. Windchill Dew Point Humidity Pressure Visibility Wind Dir Wind Speed Gust Speed Precip Events Conditions
12:00 AM 46 °F - 45 °F 94% 29.70 in 7 mi WSW 24.2 mph - - Rain Light Rain
3:00 AM 47 °F - 40 °F 67% 29.64 in 9 mi NW 24.2 mph - - Rain Light Rain
3:50 AM 46.4 °F 38.1 °F 35.6 °F 66% 29.62 in 6.2 mi NW 24.2 mph - N/A   Scattered Clouds
4:20 AM 44.6 °F 35.7 °F 35.6 °F 71% 29.62 in 6.2 mi NW 24.2 mph 36.8 mph N/A   Scattered Clouds
4:50 AM 46.4 °F 38.5 °F 35.6 °F 66% 29.62 in 6.2 mi NW 21.9 mph - N/A   Scattered Clouds
5:20 AM 46.4 °F 37.9 °F 35.6 °F 66% 29.62 in 6.2 mi WNW 25.3 mph 39.1 mph N/A   Partly Cloudy
5:50 AM 46.4 °F 37.4 °F 35.6 °F 66% 29.59 in 6.2 mi WNW 28.8 mph - N/A   Scattered Clouds
6:00 AM 47 °F - 38 °F 62% 29.62 in 16 mi WNW 27.6 mph - -   Partly Cloudy
6:20 AM 48.2 °F - 37.4 °F 66% 29.59 in 6.2 mi WNW 34.5 mph - N/A Rain Light Rain Showers
6:50 AM 42.8 °F 34.0 °F 39.2 °F 87% 29.59 in 6.2 mi NW 20.7 mph 43.7 mph N/A   Mostly Cloudy
7:20 AM 44.6 °F 33.6 °F 35.6 °F 71% 29.62 in 6.2 mi NW 38.0 mph - N/A   Scattered Clouds
7:50 AM 44.6 °F 35.9 °F 33.8 °F 66% 29.62 in 6.2 mi NW 23.0 mph 43.7 mph N/A   Scattered Clouds
8:20 AM 44.6 °F 34.6 °F 33.8 °F 66% 29.65 in 6.2 mi NW 31.1 mph 43.7 mph N/A   Scattered Clouds
8:50 AM 44.6 °F 33.6 °F 33.8 °F 66% 29.68 in 6.2 mi NW 38.0 mph - N/A   Scattered Clouds
9:00 AM 45 °F - 35 °F 56% 29.69 in 19 mi NW 29.9 mph - -   Partly Cloudy
9:20 AM 44.6 °F 35.5 °F 35.6 °F 71% 29.68 in 6.2 mi NW 25.3 mph 49.5 mph N/A   Scattered Clouds
9:50 AM 46.4 °F 37.4 °F 33.8 °F 62% 29.68 in 6.2 mi NW 28.8 mph 47.2 mph N/A   Scattered Clouds
10:20 AM 46.4 °F 37.0 °F 35.6 °F 66% 29.71 in 6.2 mi NW 31.1 mph - N/A   Mostly Cloudy
10:50 AM 46.4 °F 37.5 °F 37.4 °F 71% 29.71 in 6.2 mi NW 27.6 mph - N/A   Mostly Cloudy
11:20 AM 46.4 °F 36.9 °F 39.2 °F 76% 29.71 in 6.2 mi NW 32.2 mph - N/A   Mostly Cloudy
11:50 AM 46.4 °F 37.4 °F 39.2 °F 76% 29.74 in 6.2 mi NW 28.8 mph - N/A   Scattered Clouds
12:00 PM 47 °F - 39 °F 66% 29.75 in 19 mi NW 23.0 mph - -   Partly Cloudy
12:20 PM 48.2 °F - 41.0 °F 76% 29.74 in 6.2 mi NW 27.6 mph - N/A   Scattered Clouds
12:50 PM 48.2 °F - 39.2 °F 71% 29.74 in 6.2 mi NNW 26.5 mph - N/A   Scattered Clouds
1:20 PM 48.2 °F - 39.2 °F 71% 29.74 in 6.2 mi NW 26.5 mph - N/A   Scattered Clouds
1:50 PM 48.2 °F - 39.2 °F 71% 29.77 in 6.2 mi NNW 17.3 mph - N/A   Mostly Cloudy
2:20 PM 48.2 °F - 39.2 °F 71% 29.77 in 6.2 mi NW 29.9 mph - N/A Rain Light Rain Showers
2:50 PM 48.2 °F - 37.4 °F 66% 29.77 in 6.2 mi NW 27.6 mph - N/A   Scattered Clouds
3:00 PM 47 °F - 36 °F 54% 29.80 in 22 mi NW 26.5 mph - - Rain Light Rain Showers
3:20 PM 48.2 °F - 37.4 °F 66% 29.77 in 6.2 mi NW 32.2 mph 43.7 mph N/A   Scattered Clouds
3:50 PM 46.4 °F 37.4 °F 35.6 °F 66% 29.80 in 6.2 mi NNW 28.8 mph - N/A   Mostly Cloudy
4:20 PM 46.4 °F 37.2 °F 35.6 °F 66% 29.80 in 6.2 mi NW 29.9 mph - N/A   Mostly Cloudy
4:50 PM 46.4 °F 37.4 °F 37.4 °F 71% 29.83 in 6.2 mi NW 28.8 mph - N/A   Mostly Cloudy
5:20 PM 48.2 °F - 39.2 °F 71% 29.83 in 6.2 mi NW 33.4 mph - N/A   Mostly Cloudy
5:50 PM 48.2 °F - 39.2 °F 71% 29.83 in 6.2 mi NW 31.1 mph - N/A   Mostly Cloudy
6:00 PM 47 °F - 38 °F 62% 29.86 in 16 mi NW 29.9 mph - -   Partly Cloudy
6:20 PM 48.2 °F - 39.2 °F 71% 29.86 in 6.2 mi NW 29.9 mph - N/A Rain Light Rain Showers
6:50 PM 46.4 °F 37.7 °F 39.2 °F 76% 29.86 in 6.2 mi NW 26.5 mph 41.4 mph N/A   Mostly Cloudy
7:20 PM 48.2 °F - 39.2 °F 71% 29.89 in 6.2 mi NW 21.9 mph 34.5 mph N/A   Scattered Clouds
7:50 PM 48.2 °F - 39.2 °F 71% 29.89 in 6.2 mi NNW 25.3 mph 36.8 mph N/A   Scattered Clouds
8:20 PM 46.4 °F 37.4 °F 35.6 °F 66% 29.92 in 6.2 mi NNW 28.8 mph - N/A   Mostly Cloudy
8:50 PM 46.4 °F 37.0 °F 39.2 °F 76% 29.92 in 6.2 mi North 31.1 mph - N/A Rain Light Rain Showers
9:00 PM 46 °F - 38 °F 63% 29.95 in 16 mi North 28.8 mph - - Rain Light Rain Showers
9:20 PM 46.4 °F 38.5 °F 37.4 °F 71% 29.95 in 6.2 mi North 21.9 mph - N/A   Partly Cloudy